Probability
0 0 1 3 4 2 1 1 0 0 0 3 8 14 18 20 20 19 20 20 21 25 27 25 22 22 23 23 22 20 19 20 24 27 30 31 29 26 21 16 12 10 9 8
0 0 1 3 4 3 3 2 1 1 2 6 12 17 19 20 22 23 24 25 25 27 28 26 22 21 21 21 20 19 19 21 24 27 29 30 30 28 23 17 14 12 10 9
0 0 0 2 3 4 4 3 3 3 5 10 17 20 20 22 26 27 29 31 31 30 29 27 22 19 18 17 18 19 20 21 23 23 24 25 25 24 21 17 15 14 13 12
0 0 0 1 1 3 3 4 5 7 10 16 21 22 21 23 25 26 27 31 33 31 29 26 21 17 16 16 19 21 20 20 19 18 18 18 19 18 18 16 15 15 15 15
0 0 0 1 1 1 3 4 6 11 17 22 24 24 23 22 21 21 23 26 29 29 27 24 21 18 16 16 17 19 19 17 17 16 15 14 15 16 17 16 15 15 15 15
0 0 0 0 0 1 2 2 5 13 20 23 24 23 21 19 19 19 21 23 24 24 23 21 19 18 16 14 14 15 16 15 15 15 15 13 14 16 17 17 15 14 13 13
0 0 0 0 0 1 1 2 5 11 16 18 18 18 16 17 18 19 21 22 22 20 18 17 15 14 12 11 10 11 11 11 12 13 14 14 15 16 16 16 15 13 11 10
0 0 0 0 1 1 1 2 6 8 10 12 13 14 15 16 17 18 19 19 18 17 14 12 10 9 7 7 7 7 7 7 8 10 13 15 16 16 16 15 14 13 11 8
0 1 1 1 1 0 0 2 5 6 7 11 13 15 17 18 18 19 18 17 15 16 14 10 7 6 5 5 4 4 5 6 7 7 9 11 13 14 14 13 12 12 10 8
1 2 3 3 2 1 1 3 5 6 8 12 15 17 19 19 20 22 20 17 17 18 16 11 7 6 5 5 4 4 5 6 6 6 6 7 8 10 10 10 10 10 9 8
2 3 4 4 4 3 3 5 7 9 10 13 15 17 20 21 23 24 21 17 18 19 16 12 9 6 5 5 5 4 4 5 5 5 4 4 4 5 5 6 6 7 7 7
2 1 1 3 4 5 5 6 9 11 12 13 15 17 20 22 23 22 17 15 15 15 13 11 9 6 5 6 6 5 5 4 4 3 3 3 3 3 2 3 3 3 4 5
1 0 0 1 3 5 6 7 9 11 13 15 16 17 18 20 20 16 12 10 10 10 9 8 7 7 7 7 7 7 6 4 3 2 2 2 3 2 1 1 1 1 1 1
0 0 0 1 2 5 7 9 10 11 14 15 14 13 15 16 15 12 8 6 6 7 7 7 7 7 7 8 8 8 6 5 4 2 1 1 1 2 1 0 0 0 0 0
0 0 1 3 4 6 9 10 10 12 13 13 11 11 13 14 11 8 5 4 4 5 6 6 6 6 7 7 8 8 6 5 4 2 0 0 1 2 1 0 0 0 0 0
0 1 3 6 8 10 11 10 9 9 10 11 11 12 14 13 8 4 3 1 2 3 4 4 4 5 6 6 7 7 6 5 4 1 1 1 1 2 1 1 1 1 0 0
1 2 4 7 10 12 11 9 7 6 8 10 11 12 12 9 5 2 1 0 1 2 3 3 3 4 4 6 7 7 6 5 3 2 2 2 2 2 2 2 2 1 0 0
0 1 3 6 8 11 11 8 5 5 7 9 10 9 8 5 3 1 0 0 0 1 1 2 3 3 3 4 5 5 5 5 3 2 2 2 2 2 2 1 1 1 0 0
0 1 2 4 6 7 9 7 4 3 4 6 6 5 4 3 2 1 0 0 0 0 0 1 2 3 3 3 3 3 4 4 3 2 1 1 1 0 0 0 0 0 0 0
1 2 3 3 4 5 6 6 5 3 3 3 4 4 4 3 1 0 0 0 0 0 0 0 1 2 2 1 1 3 3 3 3 2 1 0 0 0 0 0 0 0 0 0
3 3 3 4 3 3 4 5 5 5 4 3 3 4 5 4 1 0 0 0 0 0 0 0 1 2 1 0 1 3 3 3 2 2 1 0 0 0 0 0 0 0 0 0
2 3 3 4 4 3 3 4 5 5 4 3 4 5 5 4 2 0 0 0 0 0 0 0 1 1 1 1 2 2 2 1 1 1 0 0 0 0 0 0 0 0 0 0
1 1 2 3 3 2 2 2 4 5 4 3 3 4 3 2 1 0 0 0 0 0 0 1 1 0 0 1 1 1 1 0 0 0 0 0 0 0 0 0 0 0 0 0
0 0 1 1 1 1 0 1 2 3 3 2 2 2 1 0 0 0 0 0 0 0 0 0 0 0 0 0 0 0 0 0 0 0 0 0 0 0 0 0 0 0 0 0
0 0 0 0 0 0 0 0 1 1 1 1 1 1 0 0 0 0 0 0 0 0 0 0 0 0 0 0 0 0 0 0 0 0 0 0 0 0 0 0 0 0 0 0
0 0 0 0 0 0 0 0 0 0 1 0 0 0 0 0 0 0 0 0 0 0 0 0 0 0 0 0 0 0 0 0 0 0 0 0 0 0 0 0 0 0 0 0
0 0 0 0 0 0 0 0 0 0 1 0 0 0 0 0 0 0 0 0 0 0 0 0 0 0 0 0 0 0 0 0 0 0 0 0 0 0 0 0 0 0 0 0
Wind_Speed
2 2 3 2 4 5 5 8 8 8 7 8 6 5 4 3 4 5 5 5 5 5 5 5 5 5 4 4 4 4 4 3 2 2 2 2 2 2 1 1 2 2 2 2
1 1 1 2 1 4 3 4 4 3 5 4 3 3 3 4 5 5 5 5 5 5 5 5 5 4 4 3 3 4 4 3 2 2 2 2 2 2 2 2 2 2 2 2
1 2 2 1 2 3 3 3 6 6 7 4 4 6 6 6 6 6 5 5 4 4 4 4 4 4 4 4 4 4 3 3 2 3 3 2 3 3 3 2 2 2 3 3
3 3 3 7 2 2 3 1 2 3 3 6 5 4 2 3 6 6 5 4 4 3 3 3 4 4 4 5 5 4 4 3 3 3 3 2 3 3 2 2 2 2 2 2
4 3 3 5 1 2 3 2 1 3 4 4 6 5 2 1 3 4 3 3 3 4 4 4 5 5 6 6 5 5 4 3 2 3 3 3 3 2 2 3 3 2 2 3
5 5 6 7 3 1 4 2 2 3 6 6 6 4 4 3 4 3 3 3 4 5 5 5 4 5 7 6 5 4 3 2 2 2 3 3 3 3 2 3 3 3 3 3
4 3 6 6 4 2 4 6 2 4 5 6 5 5 4 5 4 4 4 5 6 6 5 4 4 6 7 5 4 3 3 3 3 3 2 2 2 2 3 3 4 3 4 3
4 4 6 3 1 4 5 2 2 3 4 4 2 3 5 5 6 6 6 6 6 6 5 4 4 6 6 4 3 3 4 4 4 3 3 3 3 3 3 4 4 3 3 3
6 6 4 2 2 2 2 2 2 3 3 5 5 5 5 5 6 6 6 5 5 6 6 4 4 5 6 4 4 4 5 5 5 5 4 4 4 3 3 3 3 2 3 3
0 3 3 2 1 1 1 1 1 3 4 6 6 6 5 6 6 6 5 6 6 6 6 4 3 4 5 4 4 5 6 5 4 5 5 5 4 3 2 2 2 2 2 2
1 3 3 3 1 1 1 1 2 2 3 5 7 6 5 5 6 5 5 5 5 6 5 4 4 4 4 4 5 6 5 5 4 4 4 4 5 4 3 2 1 2 2 2
5 5 3 3 2 1 2 1 2 3 3 3 5 6 6 5 5 5 5 5 5 5 6 5 4 4 3 3 4 6 5 4 3 3 3 3 4 5 8 6 7 6 3 3
4 2 3 2 1 1 2 1 2 3 3 3 3 5 5 5 5 5 6 6 5 5 5 5 5 4 3 4 4 5 5 4 3 3 3 3 3 3 3 5 8 8 6 5
3 3 1 1 1 1 3 3 4 4 3 3 4 5 6 5 6 6 5 5 5 5 5 5 4 3 2 4 5 5 5 5 4 3 3 3 3 3 3 3 3 3 5 6
2 3 4 2 2 2 3 4 5 4 4 4 4 5 6 7 6 5 5 5 6 6 5 4 4 3 3 4 5 5 4 3 3 3 3 3 3 3 3 3 3 2 2 4
2 3 4 4 3 2 3 4 4 4 4 4 4 4 5 7 7 6 5 6 6 5 4 4 3 2 3 4 5 4 3 6 5 3 3 3 3 3 3 3 3 2 2 1
4 3 4 4 4 3 3 3 4 4 5 6 5 5 6 7 7 6 5 4 4 4 4 4 3 2 3 4 5 4 3 4 6 4 3 3 3 3 3 3 3 2 2 1
6 6 6 7 6 5 4 3 3 4 4 5 6 6 7 7 7 6 5 5 5 4 3 3 3 3 3 3 3 3 3 3 3 3 3 3 3 3 3 3 3 3 2 2
5 5 5 5 5 5 5 4 4 4 4 6 7 7 6 6 6 6 6 6 5 4 2 3 5 4 3 3 4 3 4 4 3 3 3 3 3 2 2 2 2 2 2 2
3 4 4 4 4 5 5 4 4 5 5 6 7 6 6 5 6 6 5 4 3 3 4 4 4 3 3 4 5 3 4 4 4 3 3 3 3 3 2 2 2 2 2 2
4 5 5 5 4 4 4 5 6 6 6 7 7 7 6 5 5 6 5 3 1 3 5 5 3 3 3 4 5 4 4 3 3 3 3 3 3 3 3 2 2 2 2 2
3 4 5 5 5 4 3 4 5 6 6 6 6 7 7 6 5 4 3 3 3 5 4 3 3 4 5 5 4 4 4 4 3 3 3 3 3 3 3 3 2 2 2 2
2 3 3 4 5 4 3 3 5 5 6 7 6 6 6 5 5 5 3 2 3 5 4 3 5 7 7 4 3 4 4 4 4 3 3 3 3 3 3 3 2 2 2 2
2 2 2 3 4 5 4 3 4 4 5 5 5 5 5 4 3 2 3 5 6 6 4 4 7 8 6 3 4 3 3 4 4 3 3 3 3 3 3 3 2 2 1 2
2 2 3 4 4 4 4 5 5 5 5 4 4 4 3 3 3 4 4 5 6 6 4 5 7 7 4 3 4 4 3 3 4 4 3 3 3 3 3 2 2 2 2 1
1 2 2 2 3 3 4 4 4 4 4 4 3 2 2 3 4 4 4 5 5 5 4 3 4 4 3 4 4 4 4 3 4 3 3 3 3 3 2 2 2 2 2 2
2 2 2 2 2 2 3 4 4 4 4 5 4 3 3 3 4 4 5 4 4 4 3 3 3 3 3 3 4 4 3 3 3 3 3 3 3 2 2 2 2 2 2 2
Wind_Direction
203 219 167 154 165 166 161 169 172 209 211 232 218 197 187 156 132 124 123 124 130 139 143 138 138 141 145 153 145 140 141 149 170 164 155 142 127 112 112 132 139 128 124 106
39 354 126 97 148 166 169 163 176 176 232 236 179 141 143 149 145 141 142 142 141 141 142 144 144 142 139 135 127 129 140 151 143 128 123 124 123 118 102 94 94 100 104 99
202 303 68 299 235 184 170 178 163 189 220 169 157 176 182 175 162 159 159 151 148 149 152 142 136 133 131 129 121 125 131 127 118 121 120 129 130 120 114 106 102 101 96 91
122 90 196 239 259 186 154 164 191 197 194 176 177 168 153 164 166 165 162 152 144 138 130 115 110 111 117 117 119 121 118 114 113 121 124 119 116 120 117 112 112 106 100 102
122 150 259 290 281 158 156 234 215 172 154 127 114 84 36 187 166 170 162 148 137 129 123 110 105 109 108 106 110 111 113 111 112 124 120 114 110 114 121 118 113 111 99 100
127 144 209 237 261 261 122 247 253 160 157 150 128 134 223 189 155 142 122 118 115 111 107 105 103 108 107 103 102 105 108 107 104 109 118 127 135 136 131 126 125 109 90 81
141 172 246 251 281 98 152 229 219 169 166 165 175 191 176 142 137 134 127 122 117 112 109 113 116 114 107 103 102 96 99 100 93 97 105 114 117 121 118 115 106 101 96 76
141 161 239 277 110 164 212 235 166 168 177 170 157 126 133 138 138 131 122 116 115 110 102 99 110 114 110 108 110 99 96 87 80 77 82 88 95 96 104 115 112 107 97 76
179 203 238 273 220 236 178 173 193 178 181 155 140 142 140 139 137 131 126 121 113 111 103 93 98 117 119 118 106 101 92 85 79 73 68 73 91 99 97 102 113 114 105 91
210 277 284 296 304 316 184 195 219 182 168 150 141 140 136 139 134 129 125 124 120 116 113 107 101 103 115 118 112 106 99 91 85 83 75 63 62 70 89 100 114 112 109 105
225 274 326 338 346 328 39 80 101 115 135 143 136 136 138 141 139 137 131 124 126 129 127 119 109 102 101 110 115 110 104 99 91 86 89 78 65 52 60 47 98 139 139 135
208 219 193 250 290 36 73 89 127 114 93 110 136 142 138 140 138 132 129 124 123 125 126 122 116 110 103 103 120 120 115 110 105 100 94 93 90 67 50 59 58 66 89 115
204 189 187 237 322 66 98 96 102 101 116 115 114 128 131 131 129 125 127 128 131 132 130 125 121 119 116 117 122 123 127 126 118 115 113 109 105 104 84 54 55 54 56 78
183 143 143 208 175 104 113 108 97 90 93 112 117 117 116 113 116 120 128 131 127 122 120 120 118 118 122 120 119 120 123 126 124 122 120 114 112 110 110 105 81 48 41 59
193 171 179 166 118 108 114 113 108 109 112 105 113 120 121 120 122 123 122 120 116 116 116 118 124 132 126 119 119 124 126 125 118 112 107 106 106 104 102 100 96 87 69 56
148 144 151 147 157 154 133 132 135 145 139 132 131 128 127 125 122 118 118 123 126 128 128 122 121 127 117 122 119 118 122 129 124 121 119 115 113 112 108 105 103 102 99 98
153 170 170 171 180 175 170 168 166 165 153 145 145 136 125 120 116 114 112 115 125 129 127 121 115 107 116 123 121 120 120 125 122 119 120 123 120 121 123 122 120 117 113 105
189 193 188 179 179 174 172 173 171 166 166 152 140 137 139 136 136 133 130 122 110 100 100 114 120 119 117 120 122 124 126 127 125 125 124 121 122 124 125 124 127 124 114 102
181 188 190 182 179 176 172 177 177 165 152 146 147 151 149 144 144 143 141 137 136 139 150 132 134 130 128 133 127 125 128 127 121 122 124 121 118 120 123 122 122 121 122 117
161 163 164 164 168 168 169 173 166 154 151 149 144 139 138 142 141 139 137 143 162 167 155 141 138 136 139 141 131 128 130 131 129 130 128 127 126 124 122 121 121 123 130 134
155 160 163 165 169 169 171 169 164 163 158 152 151 152 151 146 140 138 142 143 145 137 137 135 135 138 138 137 132 129 129 130 132 138 142 139 135 133 131 131 128 129 137 136
166 170 175 168 158 162 165 158 157 155 151 148 148 148 143 142 139 133 141 155 157 147 140 140 143 145 143 136 132 131 132 134 137 140 144 145 146 146 143 138 136 135 139 139
166 170 166 164 159 154 141 141 146 148 149 147 149 154 155 154 155 155 157 155 144 145 143 150 147 140 137 130 132 135 137 138 138 141 142 144 147 147 146 144 145 145 144 149
130 137 141 144 138 136 140 144 136 134 132 131 135 144 145 140 133 133 135 142 144 139 137 144 142 138 133 130 130 129 132 133 130 129 133 135 137 140 140 141 138 140 139 149
132 139 135 136 142 151 148 137 123 118 119 119 123 131 137 141 148 147 137 142 140 135 132 138 140 139 136 132 132 131 132 136 135 133 133 134 136 139 137 138 142 143 145 149
119 129 135 141 151 146 141 136 136 137 134 128 122 119 113 111 124 133 131 134 136 131 130 133 138 136 132 130 131 128 129 132 131 132 136 138 138 135 133 136 138 146 155 156
99 104 109 106 111 131 136 139 143 148 148 146 143 142 136 134 137 138 132 130 133 130 126 128 132 135 132 132 128 124 126 129 132 132 134 134 133 131 135 139 139 142 148 145